Tracking 19709 objects as of 20-Jun-2019
HD Live streaming from Space Station
objects crossing your sky now

OPS 9381 (GGTS)

Track OPS 9381 (GGTS) now!
OPS 9381 (GGTS) is classified as:


NORAD ID: 2207
Int'l Code: 1966-053A
Perigee: 33,661.1 km
Apogee: 33,859.0 km
Inclination: 4.1 °
Period: 1,333.5 minutes
Semi major axis: 40131 km
RCS: 0.8912 m2 (medium)
Launch date: June 16, 1966
Source: United States (US)
Launch site: AIR FORCE EASTERN TEST RANGE (AFETR)
aabbcc
Your satellite tracking list
Your tracking list is empty




NASA's NSSDC Master Catalog

Two Line Element Set (TLE):
1  2207U 66053A   19170.02718813 -.00000068  00000-0  00000+0 0  9993
2  2207   4.0713  58.5843 0024657 175.4625  28.9249  1.07989569208564
Source of the keplerian elements: AFSPC